Regional Weather Roundup
Issued by NWS Austin/San Antonio, TX

Home | Current Version | Previous Version | Text Only | Print | Product List | Glossary On
Versions: 1 2 3 4 5 6 7 8 9 10 11 12 13 14 15 16 17 18 19 20 21 22 23 24 25 26 27 28 29 30 31 32 33 34 35 36 37 38 39 40 41 42 43 44 45 46 47 48 49 50
786
ASUS44 KEWX 281901
RWREWX
SOUTH TEXAS REGIONAL WEATHER ROUNDUP
NATIONAL WEATHER SERVICE AUSTIN/SAN ANTONIO TX
200 PM CDT WED JUN 28 2017

NOTE: "FAIR" INDICATED FEW OR NO CLOUDS BELOW 12,000 FEET WITH NO
SIGNIFICANT WEATHER AND/OR OBSTRUCTIONS TO VISIBILITY.

* - THESE STATIONS ARE NOT NWS OR FAA STATIONS...AND ARE NOT SUBJECT
    TO NWS AND FAA QUALITY CONTROL.

TXZ171-172-183>190-282000-
TEXAS HILL COUNTRY AND EDWARDS PLATEAU

CITY           SKY/WX    TMP DP  RH WIND       PRES   REMARKS
JUNCTION       MOSUNNY   87  65  47 S9        29.94F
*LLANO         MOSUNNY   84  70  61 SE8       29.98F
BURNET         PTSUNNY   85  66  53 E7        29.97F
*HORSESHOE BAY CLOUDY    86  69  56 MISG      29.94F
*KERRVILLE     CLOUDY    83  69  63 SE7       29.96F
*FREDERICKSBRG PTSUNNY   83  65  54 E7        29.96F
*ROCKSPRINGS   MOSUNNY   84  68  58 S12       30.00F
*BOERNE STAGE  CLOUDY    81  64  57 CALM      29.96F
*CASTROVILLE   PTSUNNY   87  65  47 SE7       29.93F
HONDO          PTSUNNY   88  68  51 S6        29.92F HX  91
*UVALDE        MOSUNNY   86  68  54 SE8       29.92F HX  90
DEL RIO        MOSUNNY   88  67  49 SE14G22   29.89F HX  91
LAUGHLIN AFB   MOSUNNY   88  68  51 SE14      29.90F HX  91
CARRIZO SPRGS  MOSUNNY   88  68  51 SE6       29.89F HX  91
*EAGLE PASS    PTCLDY    91  66  43 VRB6G18   29.90F HX  94
$$

TXZ173-191>194-202-209-217>225-228-282000-
CENTRAL AND SOUTH CENTRAL TEXAS

CITY           SKY/WX    TMP DP  RH WIND       PRES   REMARKS
GEORGETOWN     CLOUDY    86  66  51 E8        29.93F
AUSTIN/BERGSTM PTSUNNY   87  70  56 E6        29.90F HX  92
AUSTIN/MABRY   PTSUNNY   86  68  54 VRB3      29.93F
*AUSTIN/EXEC     N/A     86  70  58 E10       29.93F HX  90
*LAGO VISTA    CLOUDY    85  69  59 S5        29.95F
SAN MARCOS     PTSUNNY   88  72  58 E9        29.92F HX  94
NEW BRAUNFELS  PTSUNNY   88  70  55 E6        29.90F HX  93
RANDOLPH AFB   PTSUNNY   87  70  56 NE3       29.91F HX  91
PT SAN ANTONIO MOSUNNY   87  70  57 SE3       29.89F HX  92
SAN ANTONIO    PTSUNNY   87  69  54 VRB6      29.92F HX  91
STINSON FIELD  CLOUDY    90  69  50 CALM      29.89F HX  94
*LA GRANGE     MOSUNNY   89  74  61 E7        29.88F HX  97
*GIDDINGS      PTSUNNY   87  69  54 SE8       29.92F HX  91
*GONZALES      PTSUNNY   90  72  55 E8        29.89F HX  96
$$

TXZ163>164-176>182-195>201-210>213-226-227-235-282000-
SOUTHEAST TEXAS

CITY           SKY/WX    TMP DP  RH WIND       PRES   REMARKS
COLLEGE STN    MOSUNNY   87  71  58 E12       29.91F HX  93
*BRYAN         MOSUNNY   86  72  61 SE6       29.93F HX  92
*CALDWELL      NOT AVBL
*CROCKETT      MOSUNNY   86  72  62 E7        29.97F HX  92
*BRENHAM       MOSUNNY   89  73  58 E8G16     29.90F HX  96
HUNTSVILLE     MOSUNNY   88  68  51 E7        29.93F HX  91
CONROE         MOSUNNY   88  71  57 E13       29.91F HX  94
HOUSTON BUSH   MOSUNNY   89  72  56 E12G22    29.89F HX  96
HOUSTON HOBBY  MOSUNNY   87  73  62 E13       29.89F HX  94
*HOUSTON SW AP PTSUNNY   86  73  65 E10       29.90F HX  93
PEARLAND       MOSUNNY   87  73  62 E13G20    29.91F HX  94
HOUSTON HOOKS  PTSUNNY   88  71  57 E12       29.90F HX  94
ELLINGTON FLD  PTSUNNY   84  77  79 E13       29.91F HX  94
SUGAR LAND     PTSUNNY   88  73  61 E14       29.88F HX  95
*HOUSTON EXEC  MOSUNNY   88  75  66 E10       29.90F HX  97
*CLEVELAND MUN MOSUNNY   87  73  63 E7        29.92F HX  94
*WHARTON       MOSUNNY   89  72  57 E12G17    29.88F HX  96
*COLUMBUS      PTSUNNY   87  72  60 E10       29.90F HX  94
*EAGLE LAKE    PTCLDY    88  77  69 E12       29.89F HX 100
$$

TXZ214>216-236>238-282000-
THE UPPER TEXAS COAST

CITY           SKY/WX    TMP DP  RH WIND       PRES   REMARKS
*ORANGE        LGT RAIN  79  76  91 E9        29.95F
PORT ARTHUR      N/A    N/A N/A N/A MISG        N/A
GALVESTON      PTSUNNY   82  76  81 E12       29.90F
ANGLETON       MOSUNNY   86  75  69 E8G17     29.88F HX  95
*BAY CITY      MOSUNNY   83  77  80 E6        29.88F HX  92
PALACIOS       TSTM      75  75 100 CALM      29.87F VSB 3/4
$$

TXZ229>234-239>247-282000-
TEXAS COASTAL BEND AND RIO GRANDE PLAINS

CITY           SKY/WX    TMP DP  RH WIND       PRES   REMARKS
VICTORIA       PTSUNNY   88  75  65 NE10      29.87F HX  97
*BEEVILLE      PTSUNNY   89  72  58 NE6       29.87F HX  96
ROCKPORT       SUNNY     87  73  62 E7        29.85F HX  94
*PORT ARANSAS  PTSUNNY   83  74  73 E6        29.86F
*PORT LAVACA   LGT RAIN  79  78  98 NE6       29.87F
*INGLESIDE     PTSUNNY   89  75  63 MISG      29.85F HX  98
CORPUS CHRISTI MOSUNNY   91  74  57 NE9       29.85F HX 100
CORPUS NAS     PTSUNNY   90  77  65 E9        29.85F HX 103
*ROBSTOWN      SUNNY     90  73  56 CALM      29.85F HX  98
ALICE          SUNNY     94  68  42 N7        29.85F HX  98
KINGSVILLE NAS PTSUNNY   90  74  59 NE7       29.85F HX  99
COTULLA        MOSUNNY   90  68  48 VRB3      29.88F HX  94
*FAITH RANCH   MOSUNNY   88  68  51 VRB7      29.89F HX  91
LAREDO         MOSUNNY   91  70  49 NE8       29.87F HX  96
$$

TXZ248>255-282000-
DEEP SOUTH TEXAS

CITY           SKY/WX    TMP DP  RH WIND       PRES   REMARKS
BROWNSVILLE    TSTM      75  74  96 NE10G21   29.88R FOG
PORT ISABEL    PTSUNNY   82  77  84 SE12      29.86F HX  90
*SOUTH PADRE   NOT AVBL
HARLINGEN      MOSUNNY   93  75  55 E7        29.83F HX 104
*HEBBRONVILLE  SUNNY     87  66  50 E6        29.89F
MCALLEN        SUNNY     98  72  42 VRB6      29.83F HX 107
*WESLACO       MOSUNNY   92  73  53 CALM      29.82F HX  99
FALFURRIAS     PTSUNNY   89  70  53 NE3       29.85F HX  94
EDINBURG       PTSUNNY   94  69  44 NE5       29.84F HX  99
*ZAPATA        PTSUNNY   89  70  53 CALM      29.86F HX  94
$$

TXZ213>215-236>238-242>244-246-247-251-254-255-282000-
CMAN STATIONS

STATION/POSITION TIME  TEMP    WIND        PRES    WAVE
                       AIR SEA DIR/SP/G            HT/PER
                 (UTC) (F)     (DEG/KT/KT) (MB)    (FT/S)
SABINE PASS      1830   80 85  140/ 15/ 17 1014.3
SEA RIM ST PARK  1800   81     100/ 13/ 17 1013.7
NORTH JETTY/GLS  1824      83   70/ 15/ 18 1012.0
EAGLE POINT      1824   80 83  110/ 13/ 16 1013.0
MORGANS POINT    1830   82 84  100/ 13/ 17 1012.7
MISSION/ARANSAS  1800           90/  7       N/A
PORT O`CONNOR    1824   82      80/  7/  9 1011.3
PORT ARANSAS     1800   82 85   60/  7/  9 1011.8
MALAQUITE BEACH  1824   82 85   50/  8/  9 1010.9
PORT ISABEL      1824   79 85              1011.4
$$




USA.gov is the U.S. government's official web portal to all federal, state and local government web resources and services.